User: anonymous
Location: Melbourne
(37.8170°S, 144.9670°E)
Time: 09:45:05
(UTC+11:00)
Language:

Cosmos 1656 Rocket - Orbit

View from above orbital plane
View from above orbital plane
View from above satellite
View from above satellite

Ground track
Ground track

The orbit data is extracted from the following two-line orbital elements,

1 15772U 85042D   14293.43301476 -.00000035  00000-0  56493-5 0  5052
2 15772 071.1097 223.8092 0033290 113.1728 358.2321 14.21043882523530
Epoch (UTC): 20 October 2014 10:23:32
Eccentricity: 0.0033290
inclination: 71.1097°
perigee height: 798 km
apogee height: 846 km
right ascension of ascending node: 223.8092°
argument of perigee: 113.1728°
revolutions per day: 14.21043882
mean anomaly at epoch: 358.2321°
orbit number at epoch: 52353

The dashed part of the orbit path shows where the satellite is in the earth's shadow,  

DLR